Location: Willingham
(52.3167°N, 0.0667°E)
Time: 22:16:12
(UTC+00:00)

Cosmos 1980 Rocket - Pass Details

Date: 19 May 2025
Orbit: 829 x 847 km, 71.0° (Epoch: 18 June)

Event Time Altitude Azimuth Distance (km) Brightness Sun altitude
Rises 20:43:53 0° 330° (NNW) 3,384 7.2 -6.5°
Reaches altitude 10° 20:46:26 10° 336° (NNW) 2,447 6.0 -6.8°
Maximum altitude 20:51:50 46° 50° (NE) 1,109 2.8 -7.4°
Drops below altitude 10° 20:57:12 10° 123° (ESE) 2,440 4.0 -7.9°
Enters shadow 20:57:28 - 124° (SE) 2,537 4.1 -7.9°
